Voltar ao catálogo

COSMOS 1247 DEB

LostHEO
NORAD 28269·DEBRIS·🇷🇺 Russia

Lançado Feb 19, 1981 de Plesetsk Cosmodrome

Loading…

Próximas Passagens (próximas 24 horas)

TLE

ObsoletoSource: Space-Track

Época: Feb 12, 2023, 03:43 UTC

1 28269U 81016K   23043.15539108 -.00000385  00000-0  00000+0 0  9993
2 28269  66.7323  92.1460 6612039  13.2553   3.1516  2.01206578149971

Acompanhe COSMOS 1247 DEB em tempo real com AllMySat

Download on the App Store